45P/Honda-Mrkos-Pajdusakova (2022)

Japanese version
Home page
Updated on November 3, 2020

---------------------------------------------------------------------

* Profile

* Orbital Elements

Epoch 2022 Apr. 11.0 TT = JDT 2459680.5
T 2022 Apr. 25.54709 TT                                 MPCW
q   0.5571806            (2000.0)            P               Q
n   0.18478014     Peri.  327.90889     +0.56328381     -0.82282410
a   3.0528058      Node    87.70313     +0.77311929     +0.49269923
e   0.8174857      Incl.    4.32261     +0.29154400     +0.28321013
P   5.33
From 1163 observations 2016 Nov. 6-2017 Mar. 8, mean residual 0".7.
     Nongravitational parameters A1 = -1.29, A2 = -0.6735.

* Finding Charts

* Magnitudes Graph

        m1 = 14.2 + 5 log d + 23.0 log r  [ ,0]  (             - 2022 Apr. 25)
        m1 = 12.0 + 5 log d + 15.0 log r  [0, ]  (2022 Apr. 25 -             )

---------------------------------------------------------------------

The orbital elements are published on M.P.E.C. 2017-E59.
The charts are made with StellaNavigator Ver.10 (AstroArts).
The magnitudes graphs are made with Comet for Windows.

---------------------------------------------------------------------

Copyright(C) Seiichi Yoshida (comet@aerith.net). All rights reserved.